TimePDT,TemperatureF,Dew PointF,Humidity,Sea Level PressureIn,VisibilityMPH,Wind Direction,Wind SpeedMPH,Gust SpeedMPH,PrecipitationIn,Events,Conditions,WindDirDegrees,DateUTC
12:00 AM,60.8,48.2,63,29.97,10.0,NW,6.9,-,N/A,,Overcast,310,2012-10-12 07:00:00
12:53 AM,60.8,50.0,68,29.96,10.0,NW,6.9,-,N/A,,Overcast,320,2012-10-12 07:53:00
1:53 AM,60.1,50.0,69,29.97,10.0,NW,10.4,-,N/A,,Overcast,310,2012-10-12 08:53:00
2:53 AM,59.0,50.0,72,29.98,10.0,WNW,9.2,-,N/A,,Overcast,300,2012-10-12 09:53:00
3:53 AM,60.1,51.1,72,29.98,10.0,NNE,4.6,-,N/A,,Overcast,20,2012-10-12 10:53:00
4:53 AM,60.1,50.0,69,30.00,10.0,NNE,3.5,-,N/A,,Overcast,20,2012-10-12 11:53:00
5:53 AM,60.1,51.1,72,30.00,10.0,ESE,3.5,-,0.00,,Overcast,110,2012-10-12 12:53:00
6:53 AM,59.0,51.1,75,30.02,10.0,East,4.6,-,N/A,,Overcast,100,2012-10-12 13:53:00
7:53 AM,59.0,52.0,78,30.05,10.0,South,4.6,-,N/A,,Overcast,190,2012-10-12 14:53:00
8:53 AM,60.1,53.1,78,30.08,7.0,SSW,4.6,-,0.00,Rain,Light Rain,200,2012-10-12 15:53:00
9:13 AM,60.8,53.6,77,30.09,7.0,Variable,5.8,-,0.00,,Overcast,0,2012-10-12 16:13:00
9:39 AM,60.8,51.8,72,30.11,8.0,Calm,Calm,-,N/A,,Overcast,0,2012-10-12 16:39:00
9:53 AM,60.8,51.8,72,30.11,7.0,Variable,3.5,-,N/A,,Overcast,0,2012-10-12 16:53:00
10:24 AM,60.8,53.6,77,30.12,6.0,West,3.5,-,0.00,Rain,Light Rain,260,2012-10-12 17:24:00
10:43 AM,60.8,53.6,77,30.12,7.0,West,5.8,-,0.00,Rain,Light Rain,260,2012-10-12 17:43:00
10:53 AM,61.0,53.1,75,30.13,7.0,WNW,4.6,-,0.00,,Overcast,290,2012-10-12 17:53:00
11:53 AM,62.1,52.0,70,30.14,7.0,Variable,3.5,-,N/A,,Overcast,0,2012-10-12 18:53:00
12:14 PM,62.6,53.6,72,30.15,7.0,Variable,3.5,-,N/A,,Overcast,0,2012-10-12 19:14:00
12:53 PM,64.0,52.0,65,30.14,7.0,NW,4.6,-,N/A,,Overcast,310,2012-10-12 19:53:00
1:14 PM,64.4,51.8,64,30.14,7.0,Calm,Calm,-,N/A,,Overcast,0,2012-10-12 20:14:00
1:53 PM,64.0,52.0,65,30.14,8.0,Calm,Calm,-,N/A,,Overcast,0,2012-10-12 20:53:00
2:53 PM,64.4,51.8,64,30.14,9.0,NW,3.5,-,N/A,,Overcast,310,2012-10-12 21:53:00
3:53 PM,66.0,50.0,56,30.14,10.0,NW,5.8,-,N/A,,Overcast,320,2012-10-12 22:53:00
4:53 PM,66.0,50.0,56,30.15,10.0,WNW,4.6,-,N/A,,Overcast,300,2012-10-12 23:53:00
5:53 PM,64.9,50.0,58,30.16,10.0,NW,3.5,-,N/A,,Overcast,320,2012-10-13 00:53:00
6:53 PM,66.2,50.0,56,30.16,10.0,North,4.6,-,N/A,,Overcast,10,2012-10-13 01:53:00
7:53 PM,64.0,50.0,60,30.18,10.0,NNW,3.5,-,N/A,,Scattered Clouds,330,2012-10-13 02:53:00
8:53 PM,62.1,50.0,65,30.19,10.0,Calm,Calm,-,N/A,,Clear,0,2012-10-13 03:53:00
9:53 PM,61.0,50.0,67,30.19,10.0,Calm,Calm,-,N/A,,Clear,0,2012-10-13 04:53:00
10:53 PM,59.0,50.0,72,30.20,10.0,Calm,Calm,-,N/A,,Clear,0,2012-10-13 05:53:00
11:53 PM,59.0,50.0,72,30.20,10.0,WNW,3.5,-,N/A,,Scattered Clouds,300,2012-10-13 06:53:00